Temperature
19 19 18 18 17 17 17 16 15 15 14 14 14 13 13 12 12 12 12 11 11 11 11 11 11 11 11 11 10 10 10 10 10 11 11 11 12 12 12 12 13 13 13
19 19 19 18 18 17 17 17 16 15 15 14 14 13 13 12 12 12 12 11 11 11 11 11 11 11 11 10 10 10 10 10 10 10 11 11 11 11 12 12 12 12 13
20 19 19 18 18 18 17 17 16 16 15 14 14 14 13 13 12 12 12 11 11 11 11 11 11 10 10 10 10 10 10 10 10 10 10 11 11 11 11 11 12 12 12
20 20 19 19 18 18 18 17 17 16 16 15 15 14 14 13 13 12 12 11 11 11 11 11 10 10 10 10 10 10 10 10 10 10 10 10 10 11 10 11 11 11 12
20 20 20 19 19 18 18 17 17 17 16 16 15 15 14 14 13 12 12 12 11 11 11 10 10 10 10 10 10 10 10 10 10 10 10 10 10 10 10 10 10 11 11
21 21 20 19 19 19 18 18 17 17 16 16 16 15 15 14 14 13 12 12 11 11 11 11 10 10 10 10 10 10 10 9 9 9 9 9 10 10 10 10 10 10 10
21 21 20 20 19 19 18 18 17 17 17 16 16 15 15 15 14 13 12 12 12 11 11 11 11 11 10 10 10 10 9 9 9 9 9 9 10 10 9 9 9 9 10
21 21 20 20 19 19 18 18 18 17 17 16 16 16 15 15 14 14 13 12 12 12 11 11 11 11 10 10 10 10 10 10 9 9 9 9 9 9 9 9 9 9 9
21 21 20 20 19 19 18 18 18 17 17 16 16 16 15 15 14 14 13 13 12 12 12 11 11 10 10 10 9 9 10 10 10 9 9 9 9 9 9 9 9 9 9
21 21 20 20 19 19 18 18 17 17 16 16 16 16 15 15 14 14 13 13 12 12 12 11 11 10 10 10 9 9 9 10 9 9 9 9 9 9 9 8 8 8 8
20 19 19 19 18 18 18 17 17 16 16 16 15 15 15 15 14 14 13 13 12 12 12 12 11 10 10 10 9 9 9 9 9 9 9 9 9 9 9 8 8 8 8
18 18 18 17 17 17 17 16 16 16 15 15 15 15 15 14 14 14 13 13 12 12 12 11 11 10 10 10 10 9 9 9 9 8 8 8 8 9 9 8 8 8 8
17 16 16 16 16 16 15 15 15 15 15 14 14 14 14 14 14 13 13 13 12 12 12 11 11 10 10 10 9 9 9 9 8 8 8 8 8 8 8 8 8 8 8
15 15 14 14 14 14 14 14 14 14 14 14 14 13 14 14 13 13 13 12 12 12 11 11 10 10 10 9 9 9 9 9 8 8 8 8 8 8 8 8 8 8 8
13 13 13 13 13 13 13 13 12 12 12 12 13 13 13 13 13 13 12 12 12 11 11 11 10 10 10 9 9 9 9 8 8 8 8 8 8 8 8 8 8 8 8
12 12 11 11 11 11 11 12 12 12 12 12 12 12 12 12 12 12 12 12 11 11 10 10 10 10 9 9 9 9 9 8 8 8 8 8 8 8 8 8 8 8 8
11 10 10 10 10 10 10 10 10 11 11 11 12 12 12 12 12 12 12 11 11 10 10 10 10 10 9 9 9 9 9 9 8 8 8 8 8 8 8 8 8 8 8
10 10 10 9 9 9 9 9 9 9 10 10 11 11 11 11 11 11 11 11 10 10 10 10 10 10 9 9 9 9 9 8 8 8 8 8 8 8 8 8 8 8 8
9 9 9 9 9 9 9 9 9 9 9 9 10 10 11 11 11 11 11 11 10 10 10 10 10 9 9 9 9 9 8 8 8 8 8 8 8 8 8 8 8 8 8
9 9 8 8 8 8 8 8 8 8 8 8 9 9 9 10 10 10 10 10 10 10 10 9 9 9 9 9 9 8 8 8 8 8 8 8 8 8 8 8 8 8 8
8 8 8 8 7 7 7 7 7 7 7 7 7 8 8 9 9 9 9 9 9 9 9 9 9 9 8 8 8 8 8 8 8 8 8 8 8 8 8 8 8 8 8
8 7 7 7 7 6 6 6 6 6 6 6 7 7 7 8 8 8 8 8 8 8 9 8 8 8 8 8 8 8 8 8 8 8 8 8 8 8 8 8 8 8 8
7 7 6 6 6 5 5 5 5 5 5 6 6 6 7 7 7 7 7 7 8 8 8 8 8 8 8 8 8 7 7 7 7 8 8 8 8 8 8 8 8 8 8
6 6 5 5 4 4 4 4 4 4 4 5 5 6 6 6 6 6 7 7 7 7 7 7 7 7 7 7 7 7 7 7 7 7 7 7 7 8 8 8 8 8 8
5 4 4 3 3 3 3 3 3 3 4 4 4 5 5 5 5 6 6 6 6 6 7 7 7 7 7 7 7 7 7 7 7 7 7 7 7 7 7 7 7 8 8
3 3 2 2 2 2 2 2 2 2 3 3 3 4 4 4 5 5 5 5 6 6 6 6 7 7 7 7 6 6 7 6 6 6 6 7 7 7 7 7 7 7 7
Wind_Speed
10 9 9 9 9 8 7 8 7 6 6 7 7 7 7 7 6 6 7 6 7 7 6 6 7 6 5 4 4 4 4 4 5 5 4 4 4 6 8 10 12 12 13
11 10 10 9 9 8 8 8 8 8 7 7 7 7 7 7 7 7 8 7 7 7 7 7 7 6 6 5 5 5 5 5 5 6 4 3 5 6 6 7 7 10 11
11 11 10 9 9 9 9 9 8 8 8 7 7 8 8 8 8 8 8 8 8 8 8 8 8 7 7 6 6 6 5 5 5 5 5 4 4 4 5 6 6 5 8
11 11 11 11 11 10 10 9 9 9 8 8 8 8 8 8 8 8 7 7 7 7 7 7 7 7 8 8 7 7 6 6 5 5 5 4 4 4 3 4 5 4 5
12 12 12 11 10 10 9 9 9 9 10 9 9 8 8 7 8 8 7 7 7 7 7 7 8 10 11 9 7 7 7 6 5 5 5 4 4 4 4 3 4 5 5
13 14 12 11 10 11 10 10 9 9 9 8 9 9 9 8 10 12 9 7 7 7 8 8 8 9 11 13 13 12 11 9 8 6 6 6 7 6 5 4 3 3 4
13 13 12 12 12 12 11 10 10 10 9 9 9 9 9 10 13 14 14 9 8 8 8 8 8 8 9 7 9 11 11 14 14 10 9 10 8 7 6 6 5 5 6
13 13 12 12 12 11 11 11 11 9 8 9 9 9 9 10 14 15 15 10 8 9 9 9 9 9 10 9 9 9 9 9 11 10 9 10 10 9 8 8 7 6 6
12 13 13 13 12 11 12 12 10 8 9 8 7 9 9 10 14 15 14 7 8 10 10 10 10 10 13 15 10 10 10 10 12 15 15 14 15 15 10 5 5 5 6
12 12 10 11 12 12 13 11 9 8 10 9 9 9 10 10 13 15 15 7 8 9 8 9 13 14 14 14 9 9 11 11 9 8 9 10 9 10 12 9 8 7 6
6 5 6 8 10 10 10 8 8 8 8 8 9 9 9 11 13 16 16 9 10 9 8 8 9 14 15 14 11 9 13 11 7 7 7 7 6 6 7 7 8 9 8
4 3 4 5 7 7 8 8 8 8 9 9 8 9 9 10 12 14 18 18 14 10 10 9 9 14 15 13 9 11 14 10 5 5 6 7 7 8 8 8 8 9 11
6 5 5 5 5 5 6 7 7 7 8 8 8 9 10 8 10 17 18 18 19 13 11 13 13 14 13 10 13 14 10 6 6 7 9 10 9 8 7 6 7 8 9
8 8 7 6 6 6 4 5 6 7 8 9 9 10 10 9 8 8 9 9 12 12 10 10 12 13 11 11 10 9 8 8 8 9 8 9 7 6 7 6 6 6 5
8 7 7 6 6 7 6 6 7 8 10 11 10 11 11 11 13 15 10 8 8 8 6 4 4 4 6 7 7 8 7 7 9 9 9 9 8 8 8 7 6 6 6
7 7 6 6 6 7 7 9 11 13 16 19 20 17 13 15 16 16 17 16 13 11 7 5 6 7 8 9 9 8 8 9 9 9 9 9 9 9 9 7 6 7 8
7 7 7 7 7 8 8 8 10 12 15 17 18 19 19 18 17 16 15 13 11 13 7 7 8 8 9 9 9 9 9 9 8 9 9 10 9 9 9 8 8 7 8
7 8 7 7 7 7 8 8 8 9 10 9 11 14 16 17 17 16 12 9 6 7 7 9 9 9 9 9 9 9 9 8 8 8 9 9 9 9 9 9 9 9 9
6 6 6 7 7 7 7 8 8 9 9 9 9 9 11 11 10 10 11 8 9 9 9 10 10 9 9 9 9 9 9 9 9 8 8 9 9 9 9 9 9 11 10
6 10 10 7 7 7 8 8 8 8 9 9 8 7 5 3 3 4 7 8 8 8 9 9 9 9 9 8 8 8 8 8 9 9 8 8 8 8 10 10 9 9 9
6 8 12 9 6 7 7 8 8 8 8 8 9 9 9 5 6 6 6 7 8 9 8 8 8 8 8 7 7 8 9 8 8 8 8 8 8 8 8 8 9 9 8
6 6 6 6 6 7 8 8 8 8 9 9 8 9 10 5 4 3 3 4 6 6 6 6 6 6 7 7 7 7 7 7 7 7 7 7 7 8 8 8 8 8 8
6 6 6 6 6 9 9 8 8 9 9 8 8 7 6 5 4 3 3 3 4 4 3 4 4 5 5 5 5 6 7 7 7 6 7 7 7 7 7 8 9 9 9
5 6 6 7 7 7 8 8 8 9 9 9 9 7 6 6 4 3 3 3 3 2 1 1 2 4 6 5 4 4 4 5 5 6 7 8 8 7 7 8 8 9 9
5 6 6 7 8 8 9 9 9 9 9 9 8 8 7 6 4 4 4 4 3 3 3 3 2 4 6 5 5 4 5 5 6 5 6 6 8 8 8 8 8 8 9
6 6 7 7 7 8 9 9 9 9 9 9 8 8 8 7 6 5 5 5 4 4 4 3 4 5 6 5 6 6 6 6 7 7 5 6 7 7 7 7 8 8 8
Wind_Direction
183 184 181 188 191 189 193 204 207 211 212 210 211 213 219 224 222 217 225 229 232 244 247 240 245 243 241 244 239 232 223 201 243 269 259 279 295 299 305 302 293 282 276
184 181 184 188 189 193 202 211 211 215 218 217 216 218 222 224 220 217 227 229 225 233 240 240 247 247 239 239 236 237 237 224 227 265 277 281 282 287 290 294 292 287 277
181 182 188 191 193 199 207 210 210 213 218 219 215 217 222 223 220 220 221 226 226 228 231 232 239 238 243 242 238 239 239 243 222 238 264 265 274 284 300 301 295 292 292
183 187 194 199 200 205 209 211 213 213 214 217 217 219 222 224 222 222 221 224 227 231 231 230 233 230 235 239 242 239 237 240 237 241 257 266 269 279 291 298 309 309 302
187 195 204 205 203 205 208 212 214 215 218 216 218 223 224 222 222 218 217 218 219 230 236 235 236 240 240 236 237 232 229 230 232 238 252 265 270 278 273 269 285 299 299
194 204 206 201 203 206 209 210 213 218 220 217 218 219 222 226 222 213 205 212 215 222 233 241 247 253 255 254 254 248 229 225 227 230 241 246 256 252 252 256 268 292 297
202 206 202 200 205 209 209 208 213 217 218 219 222 220 223 229 228 224 220 211 216 222 227 235 250 253 253 253 264 270 260 244 230 223 231 241 246 241 239 255 250 246 252
204 207 204 201 207 207 205 211 216 214 214 220 223 222 225 231 228 228 229 223 224 228 228 229 236 250 255 248 254 262 259 255 243 233 229 237 238 236 228 236 246 254 259
211 211 208 204 206 205 209 216 214 211 217 218 217 219 227 237 231 232 230 219 228 235 235 234 233 243 252 251 249 254 260 261 256 242 233 236 241 243 234 231 244 250 269
225 222 215 207 207 211 215 217 213 211 220 220 226 223 226 238 238 235 226 215 229 240 240 239 237 241 251 254 242 240 251 257 254 255 246 248 248 250 244 225 224 234 247
259 241 226 219 219 221 219 217 214 214 219 223 231 234 233 239 244 240 227 214 225 234 239 241 238 237 243 250 241 231 241 246 244 239 244 251 253 247 244 230 220 223 230
349 299 263 247 241 235 225 226 220 213 219 228 235 246 246 244 243 244 235 224 221 225 236 237 235 235 238 243 241 236 244 248 238 238 244 250 251 251 248 241 232 229 232
18 1 334 315 290 268 243 238 234 223 226 235 235 247 255 249 243 241 241 235 227 226 236 233 231 235 238 244 245 246 246 235 227 237 246 250 246 246 247 251 253 244 243
22 6 354 342 326 312 289 262 249 241 240 242 243 248 252 250 246 242 238 238 232 229 236 238 238 242 242 241 247 250 238 228 227 238 246 251 247 243 244 242 249 251 253
13 1 350 343 328 317 304 284 270 257 251 248 251 247 247 250 247 229 220 220 212 211 196 206 219 230 238 242 244 245 240 233 235 240 243 248 247 246 249 239 236 238 239
2 346 335 327 321 314 309 306 287 275 272 261 254 251 250 245 247 233 222 218 208 184 169 209 224 230 238 244 246 248 241 237 236 236 237 239 242 244 248 242 230 231 241
345 329 323 321 317 313 310 307 307 304 292 283 273 261 251 252 248 236 226 213 196 172 190 222 230 236 240 242 244 246 247 242 234 232 235 237 238 240 240 242 237 234 239
330 322 320 310 307 306 305 303 301 302 305 303 293 278 266 256 248 236 210 172 185 194 217 227 233 236 237 241 244 245 247 245 237 234 235 236 234 236 238 238 235 232 236
322 313 309 306 305 303 303 304 302 301 298 296 297 297 289 274 254 228 184 192 210 217 222 229 234 236 237 238 241 244 244 245 242 235 233 233 232 230 235 237 234 233 230
312 312 318 311 310 310 310 308 308 307 306 303 300 296 296 281 256 220 203 214 221 226 226 230 234 235 236 237 241 244 247 246 245 241 238 235 231 228 232 235 233 231 230
304 309 316 317 312 313 314 310 306 305 308 309 303 298 290 269 251 238 225 222 224 228 228 230 233 237 239 240 241 244 245 247 244 239 237 235 231 229 230 232 233 232 231
308 308 311 311 313 317 317 313 312 310 309 309 307 307 304 294 280 269 254 244 235 230 225 227 236 238 238 239 240 242 246 248 246 241 239 239 235 232 230 230 230 227 226
319 323 326 323 320 321 321 316 316 315 312 313 311 310 316 317 303 286 274 270 259 249 238 229 236 248 250 245 242 238 242 247 246 243 247 249 244 238 234 232 231 229 227
336 338 335 332 330 326 322 319 319 320 319 321 319 317 316 313 307 299 295 289 279 279 277 258 258 272 278 272 258 249 249 257 261 254 248 250 250 246 238 235 233 230 230
348 345 339 334 331 326 324 323 323 325 325 326 328 327 325 324 326 332 331 317 311 307 300 295 290 293 293 289 284 273 265 264 265 269 259 251 251 248 243 240 237 233 228
353 347 340 335 332 330 329 328 327 329 329 327 329 331 334 338 342 344 339 333 327 318 315 315 314 312 308 302 293 290 279 271 270 269 263 256 253 250 246 245 242 237 232
Height
1531 1532 1532 1533 1534 1534 1534 1534 1534 1534 1534 1534 1534 1534 1533 1533 1532 1531 1531 1530 1530 1529 1529 1528 1528 1527 1527 1526 1526 1526 1526 1525 1523 1521 1522 1522 1521 1521 1520 1520 1520 1519 1519
1527 1529 1529 1530 1531 1531 1531 1531 1531 1531 1531 1530 1530 1530 1529 1528 1528 1527 1526 1526 1525 1525 1524 1524 1523 1523 1522 1522 1521 1521 1520 1520 1519 1516 1516 1516 1516 1516 1515 1514 1514 1513 1513
1524 1525 1526 1527 1527 1527 1528 1528 1528 1527 1527 1526 1526 1525 1524 1524 1523 1522 1522 1521 1521 1520 1519 1519 1518 1518 1517 1517 1516 1515 1515 1515 1514 1512 1511 1511 1510 1510 1509 1509 1508 1507 1507
1520 1521 1522 1523 1523 1524 1524 1524 1524 1523 1523 1522 1521 1521 1520 1519 1518 1518 1517 1516 1515 1515 1514 1514 1513 1512 1512 1511 1510 1510 1509 1509 1509 1508 1506 1506 1505 1505 1504 1503 1502 1501 1501
1516 1516 1517 1518 1519 1520 1520 1519 1519 1519 1518 1518 1517 1516 1515 1514 1513 1512 1511 1510 1510 1509 1508 1508 1507 1506 1505 1505 1504 1504 1504 1503 1503 1502 1501 1501 1500 1499 1499 1498 1497 1496 1495
1510 1511 1512 1513 1514 1514 1514 1515 1514 1514 1514 1513 1512 1511 1510 1509 1508 1507 1506 1505 1504 1503 1502 1501 1500 1499 1499 1498 1498 1498 1498 1497 1497 1497 1496 1495 1494 1494 1494 1493 1492 1490 1489
1505 1506 1507 1507 1508 1508 1509 1509 1509 1508 1508 1507 1507 1506 1505 1504 1503 1501 1500 1499 1498 1497 1496 1495 1494 1493 1492 1491 1491 1491 1491 1491 1491 1491 1490 1489 1489 1489 1488 1487 1486 1485 1484
1499 1500 1501 1501 1502 1502 1503 1503 1503 1503 1502 1502 1501 1500 1499 1498 1497 1496 1494 1493 1491 1490 1489 1489 1487 1487 1486 1485 1485 1484 1484 1484 1485 1484 1484 1483 1483 1482 1482 1481 1480 1478 1477
1493 1493 1494 1495 1495 1496 1496 1496 1497 1497 1496 1496 1495 1495 1494 1493 1492 1490 1489 1487 1485 1484 1483 1482 1481 1480 1480 1479 1478 1477 1477 1477 1478 1478 1477 1477 1476 1476 1476 1475 1473 1472 1470
1488 1488 1489 1489 1489 1489 1490 1490 1491 1490 1490 1490 1489 1488 1487 1486 1485 1484 1482 1480 1479 1478 1477 1476 1475 1474 1474 1473 1472 1471 1470 1470 1471 1470 1470 1470 1469 1469 1469 1468 1467 1466 1464
1484 1483 1484 1484 1484 1484 1484 1484 1484 1484 1483 1482 1482 1481 1480 1479 1478 1477 1475 1473 1472 1471 1470 1469 1468 1468 1467 1466 1466 1465 1464 1464 1463 1463 1462 1462 1461 1461 1461 1461 1460 1459 1458
1480 1479 1479 1479 1479 1478 1478 1477 1477 1476 1475 1474 1473 1472 1472 1471 1470 1469 1468 1466 1465 1463 1462 1462 1461 1461 1460 1459 1458 1458 1457 1457 1456 1455 1454 1453 1453 1452 1452 1453 1452 1451 1451
1476 1475 1474 1474 1473 1473 1471 1470 1470 1469 1468 1466 1465 1463 1462 1462 1461 1460 1459 1458 1457 1455 1454 1454 1454 1453 1452 1451 1451 1450 1450 1449 1448 1446 1445 1444 1444 1444 1444 1444 1443 1444 1443
1474 1472 1470 1469 1468 1467 1465 1464 1462 1461 1459 1457 1456 1454 1452 1452 1451 1451 1450 1449 1448 1447 1446 1446 1445 1445 1444 1443 1443 1442 1441 1441 1440 1438 1437 1436 1436 1436 1436 1436 1436 1436 1436
1472 1470 1468 1465 1463 1461 1459 1457 1455 1453 1452 1449 1447 1445 1443 1441 1441 1441 1441 1440 1440 1439 1438 1437 1436 1436 1435 1434 1434 1433 1433 1432 1431 1430 1429 1429 1429 1428 1428 1429 1429 1429 1429
1469 1467 1464 1461 1458 1455 1452 1449 1447 1445 1442 1440 1438 1436 1433 1432 1431 1431 1431 1430 1430 1431 1430 1428 1428 1427 1426 1426 1425 1424 1423 1423 1422 1422 1422 1421 1421 1421 1421 1421 1422 1422 1421
1467 1464 1461 1457 1454 1450 1447 1443 1438 1435 1433 1430 1428 1425 1424 1422 1421 1421 1420 1420 1420 1420 1420 1419 1419 1419 1418 1417 1417 1415 1415 1414 1414 1414 1414 1414 1414 1414 1414 1414 1414 1414 1414
1465 1461 1457 1454 1450 1446 1442 1438 1433 1428 1424 1420 1418 1416 1414 1413 1411 1411 1411 1410 1410 1410 1410 1411 1410 1410 1410 1409 1408 1408 1407 1407 1406 1406 1406 1406 1406 1406 1406 1406 1406 1407 1407
1461 1457 1453 1449 1445 1441 1436 1432 1427 1423 1418 1413 1410 1407 1406 1404 1403 1402 1401 1401 1401 1401 1402 1402 1402 1402 1401 1401 1400 1400 1399 1399 1399 1399 1398 1398 1398 1398 1398 1398 1399 1399 1400
1456 1453 1448 1444 1440 1435 1430 1426 1421 1416 1411 1407 1403 1400 1398 1396 1394 1393 1393 1393 1393 1393 1393 1394 1394 1394 1393 1393 1393 1392 1391 1391 1391 1390 1390 1390 1390 1390 1390 1391 1391 1392 1392
1451 1447 1443 1439 1434 1430 1425 1420 1415 1410 1406 1401 1397 1394 1391 1389 1387 1386 1385 1385 1385 1385 1386 1386 1386 1386 1386 1386 1385 1385 1384 1383 1383 1382 1382 1382 1382 1382 1383 1383 1383 1384 1384
1446 1442 1438 1433 1429 1424 1419 1414 1410 1405 1400 1396 1391 1388 1385 1383 1381 1380 1379 1379 1379 1379 1379 1379 1380 1380 1379 1379 1378 1377 1376 1375 1375 1375 1374 1374 1374 1374 1375 1375 1375 1376 1377
1441 1437 1432 1428 1423 1418 1414 1409 1405 1400 1395 1391 1387 1383 1380 1378 1376 1375 1374 1374 1374 1374 1374 1373 1374 1373 1373 1372 1371 1370 1369 1368 1368 1367 1367 1367 1367 1367 1367 1367 1368 1368 1369
1436 1431 1426 1422 1417 1413 1408 1404 1400 1396 1391 1387 1383 1380 1377 1374 1372 1371 1370 1370 1369 1369 1369 1368 1368 1367 1367 1366 1365 1364 1363 1362 1361 1360 1360 1359 1359 1359 1359 1360 1360 1361 1362
1430 1426 1421 1417 1412 1408 1404 1400 1396 1392 1388 1384 1380 1377 1374 1371 1369 1367 1366 1365 1365 1364 1364 1364 1363 1362 1361 1360 1359 1358 1356 1355 1354 1353 1352 1352 1352 1352 1352 1352 1353 1353 1354
1426 1421 1417 1413 1408 1404 1400 1396 1392 1389 1385 1381 1377 1374 1371 1369 1367 1365 1364 1362 1362 1361 1360 1360 1359 1358 1356 1355 1353 1351 1349 1348 1347 1346 1345 1345 1344 1345 1345 1345 1346 1346 1347